This is the latest recevied weather packets stored in our database for station/object W8BS. If no packets are shown the sender has not sent any weather packets the latest 10 day(s).
| Time | Temp. | Humidity | Pressure | Rain* | Wind** | Luminosity | Snow |
|---|---|---|---|---|---|---|---|
| 1777475315 | 15.56° C | 98% | 1010.7 hPa | 0 mm | - | 127 W/m² | - |
| 1777475010 | 15.56° C | 98% | 1010.9 hPa | 0 mm | - | 120 W/m² | - |
| 1777474707 | 15.56° C | 98% | 1010.8 hPa | 0 mm | - | 100 W/m² | - |
| 1777474403 | 15.56° C | 98% | 1011 hPa | 0 mm | - | 68 W/m² | - |
| 1777474100 | 15.56° C | 98% | 1011 hPa | 0 mm | - | 88 W/m² | - |
| 1777473798 | 15.56° C | 99% | 1010.8 hPa | 0 mm | - | 114 W/m² | - |
| 1777473495 | 15.56° C | 99% | 1011 hPa | 0 mm | - | 96 W/m² | - |
| 1777473190 | 15.56° C | 99% | 1010.9 hPa | 0 mm | - | 128 W/m² | - |
| 1777472887 | 15.56° C | 99% | 1010.7 hPa | 0 mm | - | 174 W/m² | - |
| 1777472583 | 15.56° C | 99% | 1010.7 hPa | 0 mm | - | 157 W/m² | - |
| 1777472280 | 15.56° C | 99% | 1011 hPa | 0 mm | - | 111 W/m² | - |
| 1777471976 | 15° C | 99% | 1011.2 hPa | 0 mm | - | 96 W/m² | - |
| 1777471673 | 15° C | 99% | 1011.2 hPa | 0 mm | - | 157 W/m² | - |
| 1777471369 | 15° C | 99% | 1011.3 hPa | 0 mm | - | 196 W/m² | - |
| 1777471066 | 15° C | 99% | 1011.1 hPa | 0 mm | - | 183 W/m² | - |
| 1777470763 | 14.44° C | 99% | 1011.5 hPa | 1.27 mm | - | 122 W/m² | - |
| 1777470459 | 14.44° C | 99% | 1011.5 hPa | 1.27 mm | - | 89 W/m² | - |
| 1777470156 | 14.44° C | 99% | 1011.5 hPa | 1.78 mm | - | 58 W/m² | - |
| 1777469852 | 14.44° C | 99% | 1011.8 hPa | 3.05 mm | - | 67 W/m² | - |
| 1777469548 | 14.44° C | 99% | 1011.8 hPa | 3.05 mm | - | 53 W/m² | - |
| 1777469242 | 14.44° C | 98% | 1011.8 hPa | 3.05 mm | - | 40 W/m² | - |
| 1777468937 | 14.44° C | 98% | 1011.8 hPa | 1.27 mm | - | 35 W/m² | - |
| 1777468634 | 14.44° C | 97% | 1011.8 hPa | 0 mm | - | 26 W/m² | - |
| 1777468331 | 14.44° C | 96% | 1011.6 hPa | 1.78 mm | - | 24 W/m² | - |
| 1777468027 | 14.44° C | 95% | 1011.6 hPa | 3.05 mm | - | 23 W/m² | - |
* Rain latest hour (hover to see other rain measurements)
** Current wind speed in m/s (hover to see current wind gust speed)